User: anonymous   Login
Location: Gebenbach
(49.5378°N, 11.8735°E)
Time: 01:03:40
(UTC+00:00)
Language:

FALCON 9 DEB - Orbit

View from above orbital plane
View from above orbital plane
View from above satellite
View from above satellite

Ground track
Ground track

The orbit data is extracted from the following two-line orbital elements,

1 46086U 20055BM  21021.46506096  .00010030  00000-0  12024-3 0  9994
2 46086  53.0076 196.3376 0015656 107.9048 252.3673 15.61530475 30697
Epoch (UTC): 21 January 2021 11:09:41
Eccentricity: 0.0015656
inclination: 53.0076°
perigee height: 372 km
apogee height: 394 km
right ascension of ascending node: 196.3376°
argument of perigee: 107.9048°
revolutions per day: 15.61530475
mean anomaly at epoch: 252.3673°
orbit number at epoch: 3069

The dashed part of the orbit path shows where the satellite is in the earth's shadow,  

DLR